Newton, KS

5:12 AM CDT on September 26, 2017 (GMT -0500)
Newton City County

Weather History for KEWK - October, 2011

Change the Weather History Date:

Sunday, October 9, 2011

  Actual Average Record
Temperature  
Mean Temperature 58 °F -  
Max Temperature 62 °F 68 °F 82 °F (2010)
Min Temperature 55 °F 47 °F 42 °F (2005)
Degree Days  
Heating Degree Days 6    
Growing Degree Days 8 (Base 50)    
Moisture  
Dew Point 55 °F    
Average Humidity 85    
Maximum Humidity 94    
Minimum Humidity 77    
Precipitation  
Precipitation 0.74 in - - ()
Sea Level Pressure  
Sea Level Pressure 30.08 in    
Wind  
Wind Speed 9 mph (SSW)    
Max Wind Speed 15 mph    
Max Gust Speed 20 mph    
Visibility 9 miles    
Events      
Averages and records for this station are not official NWS values.
T = Trace of Precipitation, MM = Missing Value Source: NWS Daily Summary

Daily Weather History Graph

Daily Weather History Graph

Search for Another Location

Airport or City:

Trip Planner

Search our weather history database for the weather conditions in past years. The results will help you decide how hot, cold, wet, or windy it might be!

Date:

Astronomy

Oct. 09, 2011 Rise Set
Actual Time 7:31 AM CDT 7:00 PM CDT
Civil Twilight 7:05 AM CDT 7:26 PM CDT
Nautical Twilight 6:34 AM CDT 7:57 PM CDT
Astronomical Twilight 6:04 AM CDT 8:27 PM CDT
Moon 5:37 PM CDT (10/9) 5:19 AM CDT (10/9)
Length of Visible Light 12h 21m
Length of Day
11h 28m
Waxing Gibbous, 95% of the Moon is Illuminated
Oct 9
Waxing Gibbous
Oct 11
Full
Oct 19
Last Quarter
Oct 26
New
Nov 2
First Quarter

Hourly Weather History & Observations

Time (CDT) Temp. Dew Point Humidity Pressure Visibility Wind Dir Wind Speed Gust Speed Precip Events Conditions
8:15 AM 60.8 °F 57.2 °F 88% 30.08 in 10.0 mi ESE 5.8 mph - N/A   Overcast
8:35 AM 60.8 °F 55.4 °F 82% 30.08 in 10.0 mi ESE 6.9 mph - N/A   Overcast
8:55 AM 60.8 °F 55.4 °F 82% 30.08 in 10.0 mi SE 10.4 mph - N/A   Overcast
9:15 AM 60.8 °F 55.4 °F 82% 30.08 in 10.0 mi ESE 11.5 mph - N/A   Overcast
9:35 AM 62.6 °F 55.4 °F 77% 30.08 in 10.0 mi SE 11.5 mph - N/A   Overcast
9:55 AM 62.6 °F 55.4 °F 77% 30.09 in 10.0 mi SE 11.5 mph - N/A   Overcast
10:15 AM 62.6 °F 55.4 °F 77% 30.09 in 10.0 mi SSE 15.0 mph - N/A   Overcast
10:35 AM 62.6 °F 57.2 °F 82% 30.09 in 10.0 mi SSE 12.7 mph - N/A   Overcast
11:35 AM 62.6 °F 57.2 °F 82% 30.09 in 10.0 mi South 13.8 mph 19.6 mph N/A   Overcast
11:55 AM 62.6 °F 57.2 °F 82% 30.09 in 10.0 mi South 12.7 mph - N/A   Overcast
12:15 PM 62.6 °F 57.2 °F 82% 30.09 in 5.0 mi South 13.8 mph - N/A   Overcast
12:35 PM 62.6 °F 57.2 °F 82% 30.09 in 10.0 mi South 11.5 mph 16.1 mph N/A   Overcast
12:55 PM 62.6 °F 57.2 °F 82% 30.09 in 1.8 mi SSW 12.7 mph - N/A   Overcast
1:15 PM 60.8 °F 57.2 °F 88% 30.09 in 2.0 mi SW 12.7 mph - 0.03 in   Overcast
1:35 PM 60.8 °F 57.2 °F 88% 30.09 in 2.5 mi SSW 10.4 mph - 0.04 in   Overcast
2:15 PM 62.6 °F 57.2 °F 82% 30.07 in 10.0 mi SW 9.2 mph - N/A   Overcast
2:35 PM 62.6 °F 57.2 °F 82% 30.07 in 10.0 mi SSW 11.5 mph - N/A   Overcast
2:55 PM 62.6 °F 57.2 °F 82% 30.07 in 10.0 mi SW 12.7 mph - N/A   Overcast
3:15 PM 62.6 °F 57.2 °F 82% 30.07 in 10.0 mi SW 9.2 mph - N/A   Overcast
3:35 PM 62.6 °F 57.2 °F 82% 30.07 in 10.0 mi WSW 9.2 mph - N/A   Overcast
3:55 PM 60.8 °F 57.2 °F 88% 30.08 in 10.0 mi SSW 10.4 mph - N/A   Overcast
4:15 PM 60.8 °F 55.4 °F 82% 30.09 in 10.0 mi SW 9.2 mph - N/A   Overcast
4:35 PM 60.8 °F 55.4 °F 82% 30.08 in 10.0 mi WSW 9.2 mph - N/A   Overcast
4:55 PM 60.8 °F 55.4 °F 82% 30.08 in 9.0 mi WSW 8.1 mph - N/A   Overcast
5:15 PM 60.8 °F 55.4 °F 82% 30.08 in 10.0 mi West 5.8 mph - 0.01 in   Overcast
5:35 PM 59.0 °F 55.4 °F 88% 30.08 in 10.0 mi WNW 6.9 mph - 0.02 in   Overcast
5:55 PM 59.0 °F 55.4 °F 88% 30.08 in 10.0 mi NW 9.2 mph - 0.03 in   Overcast
6:35 PM 57.2 °F 55.4 °F 94% 30.09 in 9.0 mi NW 5.8 mph - 0.02 in   Overcast
6:55 PM 57.2 °F 53.6 °F 88% 30.09 in 10.0 mi NW 3.5 mph - 0.04 in   Overcast
7:35 PM 57.2 °F 53.6 °F 88% 30.07 in 10.0 mi NW 11.5 mph - 0.03 in   Overcast
7:55 PM 57.2 °F 53.6 °F 88% 30.08 in 10.0 mi WNW 9.2 mph - 0.05 in   Overcast
8:15 PM 57.2 °F 53.6 °F 88% 30.08 in 10.0 mi NW 5.8 mph - 0.04 in   Overcast
8:35 PM 57.2 °F 53.6 °F 88% 30.08 in 10.0 mi NNW 5.8 mph - 0.08 in   Overcast
8:55 PM 57.2 °F 53.6 °F 88% 30.08 in 10.0 mi NNW 6.9 mph - 0.11 in   Overcast
9:35 PM 55.4 °F 53.6 °F 94% 30.10 in 10.0 mi NW 3.5 mph - 0.09 in   Overcast
9:55 PM 55.4 °F 53.6 °F 94% 30.09 in 9.0 mi North 5.8 mph - 0.16 in   Overcast
10:15 PM 55.4 °F 53.6 °F 94% 30.09 in 6.0 mi NE 5.8 mph - 0.06 in   Overcast
10:35 PM 55.4 °F 53.6 °F 94% 30.08 in 7.0 mi East 5.8 mph - 0.10 in   Mostly Cloudy
10:55 PM 57.2 °F 53.6 °F 88% 30.09 in 7.0 mi East 5.8 mph - 0.13 in   Overcast
11:15 PM 57.2 °F 53.6 °F 88% 30.09 in 5.0 mi ENE 3.5 mph - 0.05 in   Overcast
11:35 PM 57.2 °F 53.6 °F 88% 30.09 in 5.0 mi East 4.6 mph - 0.11 in   Overcast
11:55 PM 57.2 °F 53.6 °F 88% 30.09 in 4.0 mi East 4.6 mph - 0.18 in   Mostly Cloudy